FW9481 Weather Reports


time (UTC)temp
C
wind
direction
speed
KPH
gust
KPH
rain 1hr
cm
rain 24hr
cm
rain mn
cm
humidity
%
barometer
mb
20260508220431 20 10 4.8 4.8 0.00 0.00 0.00 51 1008.0
20260508215927 20 347 4.8 4.8 0.00 0.00 0.00 51 1008.0
20260508215425 20 0 0.0 8.0 0.00 0.00 0.00 50 1008.1
20260508214921 20 37 3.2 4.8 0.00 0.00 0.00 50 1008.1
20260508214419 20 66 0.0 9.7 0.00 0.00 0.00 52 1008.2
20260508213915 20 231 3.2 3.2 0.00 0.00 0.00 50 1008.4
20260508213412 20 0 0.0 3.2 0.00 0.00 0.00 50 1008.2
20260508212908 20 180 0.0 3.2 0.00 0.00 0.00 51 1008.2
20260508212404 20 36 0.0 4.8 0.00 0.00 0.00 50 1008.3
20260508211900 20 206 3.2 4.8 0.00 0.00 0.00 49 1008.4
20260508211356 20 33 3.2 4.8 0.00 0.00 0.00 51 1008.4
20260508210854 20 66 0.0 6.4 0.00 0.00 0.00 50 1008.6
20260508210350 20 212 3.2 4.8 0.00 0.00 0.00 50 1008.5
20260508205847 20 35 1.6 4.8 0.00 0.00 0.00 52 1008.6
20260508205343 20 36 0.0 3.2 0.00 0.00 0.00 53 1008.8
20260508204839 20 0 0.0 6.4 0.00 0.00 0.00 52 1008.8
20260508204337 20 26 1.6 3.2 0.00 0.00 0.00 49 1008.9
20260508203832 20 101 0.0 6.4 0.00 0.00 0.00 49 1009.2
20260508203329 20 161 3.2 14.5 0.00 0.00 0.00 49 1009.0
20260508202824 20 0 0.0 3.2 0.00 0.00 0.00 51 1009.1
20260508202322 20 74 0.0 4.8 0.00 0.00 0.00 50 1009.1
20260508201820 20 59 3.2 4.8 0.00 0.00 0.00 51 1009.3
20260508201317 20 90 0.0 4.8 0.00 0.00 0.00 49 1009.2
20260508200813 20 213 3.2 4.8 0.00 0.00 0.00 49 1009.3
20260508200309 20 66 1.6 6.4 0.00 0.00 0.00 48 1009.2
20260508195805 20 36 0.0 6.4 0.00 0.00 0.00 49 1009.2
20260508195305 20 225 3.2 8.0 0.00 0.00 0.00 47 1009.5
20260508194758 20 54 1.6 6.4 0.00 0.00 0.00 48 1009.4
20260508194256 21 106 0.0 3.2 0.00 0.00 0.00 50 1009.4
20260508193753 21 90 0.0 6.4 0.00 0.00 0.00 49 1009.3
20260508193249 22 10 3.2 8.0 0.00 0.00 0.00 53 1009.3
20260508192745 22 346 0.0 8.0 0.00 0.00 0.00 50 1009.6
20260508192243 22 49 4.8 4.8 0.00 0.00 0.00 50 1009.4
20260508191740 22 71 1.6 8.0 0.00 0.00 0.00 50 1009.6
20260508191237 22 41 3.2 4.8 0.00 0.00 0.00 49 1009.5
20260508190734 21 60 0.0 6.4 0.00 0.00 0.00 49 1009.9
20260508190230 21 12 0.0 11.3 0.00 0.00 0.00 48 1010.2
20260508185727 21 112 6.4 6.4 0.00 0.00 0.00 49 1010.2
20260508185224 21 98 0.0 8.0 0.00 0.00 0.00 47 1010.3
20260508184721 22 22 6.4 8.0 0.00 0.00 0.00 47 1010.2
20260508184218 22 191 3.2 6.4 0.00 0.00 0.00 52 1010.2
20260508183715 21 188 0.0 6.4 0.00 0.00 0.00 45 1010.3
20260508183211 21 0 0.0 4.8 0.00 0.00 0.00 49 1010.2
20260508182707 22 77 1.6 6.4 0.00 0.00 0.00 50 1010.4
20260508182204 21 59 4.8 8.0 0.00 0.00 0.00 52 1010.4
20260508181700 21 166 3.2 8.0 0.00 0.00 0.00 48 1010.6
20260508181157 21 90 1.6 8.0 0.00 0.00 0.00 54 1010.6
20260508180654 21 354 1.6 6.4 0.00 0.00 0.00 46 1010.6
20260508180151 22 204 3.2 6.4 0.00 0.00 0.00 50 1010.8
20260508175647 20 345 0.0 8.0 0.00 0.00 0.00 51 1010.7
20260508175144 20 7 1.6 8.0 0.00 0.00 0.00 51 1010.9
20260508174642 20 115 0.0 6.4 0.00 0.00 0.00 50 1011.0
20260508174138 19 42 4.8 4.8 0.00 0.00 0.00 51 1011.1
20260508173635 20 29 3.2 4.8 0.00 0.00 0.00 53 1011.2
20260508173131 20 70 4.8 6.4 0.00 0.00 0.00 51 1011.5
20260508172629 20 61 4.8 6.4 0.00 0.00 0.00 54 1011.4
20260508172125 20 208 11.3 11.3 0.00 0.00 0.00 48 1011.6
20260508171622 21 53 3.2 8.0 0.00 0.00 0.00 51 1011.5
20260508171118 21 69 1.6 9.7 0.00 0.00 0.00 52 1011.6
20260508170616 21 40 4.8 6.4 0.00 0.00 0.00 51 1011.5
20260508170113 21 96 3.2 6.4 0.00 0.00 0.00 54 1011.8
20260508165610 22 162 1.6 8.0 0.00 0.00 0.00 50 1012.0
20260508165107 22 270 3.2 8.0 0.00 0.00 0.00 51 1011.9
20260508164603 22 48 3.2 14.5 0.00 0.00 0.00 56 1012.3
20260508164100 22 73 3.2 8.0 0.00 0.00 0.00 53 1012.1
20260508163557 21 45 4.8 4.8 0.00 0.00 0.00 54 1012.4
20260508163054 21 228 3.2 8.0 0.00 0.00 0.00 51 1012.1
20260508162551 21 194 8.0 14.5 0.00 0.00 0.00 50 1012.3
20260508162048 22 46 8.0 8.0 0.00 0.00 0.00 49 1012.4
20260508161545 22 42 4.8 4.8 0.00 0.00 0.00 54 1012.5
20260508161042 22 90 1.6 4.8 0.00 0.00 0.00 53 1012.6
20260508160540 21 82 3.2 4.8 0.00 0.00 0.00 53 1012.6
20260508160037 21 52 6.4 9.7 0.00 0.00 0.00 55 1012.7
20260508155534 20 70 3.2 9.7 0.00 0.00 0.00 52 1012.9
20260508155031 21 34 0.0 8.0 0.00 0.00 0.00 54 1012.9
20260508154528 20 52 4.8 8.0 0.00 0.00 0.00 55 1012.8
20260508154025 21 145 1.6 4.8 0.00 0.00 0.00 50 1012.9
20260508153522 20 82 1.6 8.0 0.00 0.00 0.00 52 1013.0
20260508153018 20 134 0.0 9.7 0.00 0.00 0.00 55 1013.2
20260508152516 20 94 0.0 8.0 0.00 0.00 0.00 59 1013.1
20260508152011 21 195 0.0 6.4 0.00 0.00 0.00 51 1013.0
20260508151508 20 110 0.0 8.0 0.00 0.00 0.00 55 1012.9
20260508151004 20 50 8.0 8.0 0.00 0.00 0.00 50 1013.3
20260508150502 20 135 4.8 12.9 0.00 0.00 0.00 53 1013.0
20260508145957 20 63 4.8 8.0 0.00 0.00 0.00 55 1013.2
20260508145454 20 71 0.0 8.0 0.00 0.00 0.00 55 1013.1
20260508144950 20 97 4.8 4.8 0.00 0.00 0.00 55 1013.4
20260508144448 20 28 3.2 9.7 0.00 0.00 0.00 53 1013.3
20260508143945 20 77 3.2 6.4 0.00 0.00 0.00 55 1013.4
20260508143443 20 90 1.6 8.0 0.00 0.00 0.00 53 1013.5
20260508142939 20 90 0.0 8.0 0.00 0.00 0.00 54 1013.4
20260508142436 20 76 4.8 6.4 0.00 0.00 0.00 53 1013.5
20260508141932 20 98 0.0 8.0 0.00 0.00 0.00 55 1013.6
20260508141429 20 48 0.0 6.4 0.00 0.00 0.00 56 1013.6
20260508140927 18 289 0.0 9.7 0.00 0.00 0.00 60 1013.7
20260508140424 18 0 0.0 6.4 0.00 0.00 0.00 55 1013.7
20260508135919 17 212 0.0 6.4 0.00 0.00 0.00 56 1013.7
20260508135416 17 103 0.0 3.2 0.00 0.00 0.00 62 1013.8
20260508134913 16 74 0.0 3.2 0.00 0.00 0.00 62 1014.0
20260508134409 15 201 0.0 4.8 0.00 0.00 0.00 63 1013.7
20260508133906 15 60 0.0 3.2 0.00 0.00 0.00 67 1013.7
20260508133404 13 180 0.0 9.7 0.00 0.00 0.00 66 1013.8
20260508132900 15 236 0.0 8.0 0.00 0.00 0.00 61 1013.8
20260508132359 15 212 0.0 8.0 0.00 0.00 0.00 63 1014.0
20260508131855 15 15 0.0 4.8 0.00 0.00 0.00 64 1014.0
20260508131350 15 18 0.0 8.0 0.00 0.00 0.00 62 1013.7
20260508130847 17 353 0.0 4.8 0.00 0.00 0.00 61 1013.8
20260508130344 15 184 0.0 6.4 0.00 0.00 0.00 59 1013.7
20260508125840 17 90 1.6 3.2 0.00 0.00 0.00 57 1013.6
20260508125336 16 257 0.0 6.4 0.00 0.00 0.00 57 1013.8
20260508124834 15 215 0.0 9.7 0.00 0.00 0.00 62 1013.7
20260508124331 16 194 0.0 4.8 0.00 0.00 0.00 58 1013.7
20260508123829 15 297 3.2 3.2 0.00 0.00 0.00 62 1013.7
20260508123328 14 180 0.0 3.2 0.00 0.00 0.00 65 1013.8
20260508122824 13 212 0.0 8.0 0.00 0.00 0.00 64 1013.6
20260508122320 13 84 0.0 6.4 0.00 0.00 0.00 67 1013.6
20260508121818 13 190 0.0 4.8 0.00 0.00 0.00 64 1013.7
20260508121316 13 82 0.0 3.2 0.00 0.00 0.00 66 1013.8
20260508120813 12 75 3.2 4.8 0.00 0.00 0.00 70 1013.9
20260508120311 12 150 0.0 3.2 0.00 0.00 0.00 70 1013.6
20260508115808 10 172 0.0 4.8 0.00 0.00 0.00 73 1013.7
20260508115306 9 98 0.0 4.8 0.00 0.00 0.00 78 1013.6
20260508114802 8 196 0.0 4.8 0.00 0.00 0.00 77 1013.5
20260508114259 8 74 0.0 4.8 0.00 0.00 0.00 78 1013.5
20260508113755 8 69 0.0 3.2 0.00 0.00 0.00 78 1013.5
20260508113254 8 82 3.2 3.2 0.00 0.00 0.00 78 1013.4
20260508112750 8 82 0.0 8.0 0.00 0.00 0.00 78 1013.3
20260508112247 8 26 1.6 4.8 0.00 0.00 0.00 79 1013.4
20260508111743 8 198 3.2 6.4 0.00 0.00 0.00 79 1013.3
20260508111241 8 192 1.6 8.0 0.00 0.00 0.00 80 1013.2
20260508110738 8 177 4.8 4.8 0.00 0.00 0.00 82 1013.1
20260508110235 7 188 3.2 4.8 0.00 0.00 0.00 85 1013.2
20260508105730 6 190 4.8 4.8 0.00 0.00 0.00 90 1013.2
20260508105227 6 188 0.0 3.2 0.00 0.00 0.00 98 1013.1
20260508104724 6 165 0.0 0.0 0.00 0.00 0.00 99 1013.2
20260508104221 5 165 0.0 0.0 0.00 0.00 0.00 99 1013.1
20260508103719 5 165 0.0 0.0 0.00 0.00 0.00 99 1013.1
20260508103215 5 180 0.0 0.0 0.00 0.00 0.00 99 1013.1
20260508102712 5 180 0.0 1.6 0.00 0.00 0.00 99 1013.1
20260508102210 5 74 0.0 0.0 0.00 0.00 0.00 99 1013.3
20260508101707 5 74 0.0 0.0 0.00 0.00 0.00 99 1013.3
20260508101205 5 82 0.0 1.6 0.00 0.00 0.00 99 1013.3
20260508100702 5 29 0.0 1.6 0.00 0.00 0.00 99 1013.3
20260508100200 5 140 0.0 0.0 0.00 0.00 0.00 99 1013.3
20260508095656 5 140 0.0 0.0 0.00 0.00 0.00 99 1013.0
20260508095154 5 140 0.0 1.6 0.00 0.00 0.00 99 1013.4
20260508094650 5 57 0.0 0.0 0.00 0.00 0.00 99 1013.4
20260508094147 5 36 0.0 3.2 0.00 0.00 0.00 99 1013.4
20260508093644 5 66 1.6 1.6 0.00 0.00 0.00 99 1013.4
20260508093142 5 54 0.0 0.0 0.00 0.00 0.00 99 1013.4
20260508092639 5 35 1.6 4.8 0.00 0.00 0.00 99 1013.1
20260508092138 5 34 3.2 4.8 0.00 0.00 0.00 99 1013.3
20260508091634 5 180 0.0 0.0 0.00 0.00 0.00 99 1013.0
20260508091132 5 164 0.0 3.2 0.00 0.00 0.00 99 1013.3
20260508090630 5 165 0.0 3.2 0.00 0.00 0.00 99 1012.9
20260508090126 4 165 0.0 1.6 0.00 0.00 0.00 99 1013.1
20260508085622 3 166 0.0 1.6 0.00 0.00 0.00 99 1012.9
20260508085120 3 105 0.0 1.6 0.00 0.00 0.00 99 1013.3
20260508084616 3 114 0.0 0.0 0.00 0.00 0.00 99 1013.4
20260508084114 3 126 0.0 1.6 0.00 0.00 0.00 99 1013.3
20260508083611 3 63 0.0 1.6 0.00 0.00 0.00 99 1013.2
20260508083108 3 74 0.0 1.6 0.00 0.00 0.00 99 1013.1
20260508082603 3 35 0.0 1.6 0.00 0.00 0.00 99 1013.0
20260508082101 3 120 0.0 1.6 0.00 0.00 0.00 99 1013.0
20260508081558 3 135 0.0 3.2 0.00 0.00 0.00 99 1013.1
20260508081054 3 123 0.0 0.0 0.00 0.00 0.00 99 1013.1
20260508080552 3 157 0.0 1.6 0.00 0.00 0.00 99 1013.2
20260508080050 3 126 0.0 1.6 0.00 0.00 0.00 99 1013.0
20260508075546 3 114 0.0 1.6 0.00 0.00 0.00 98 1013.2
20260508075043 3 90 0.0 1.6 0.00 0.00 0.00 98 1013.0
20260508074541 3 75 0.0 1.6 0.00 0.00 0.00 98 1012.9
20260508074037 3 111 0.0 1.6 0.00 0.00 0.00 97 1013.0
20260508073535 3 90 0.0 1.6 0.00 0.00 0.00 97 1013.1
20260508073032 3 82 0.0 1.6 0.00 0.00 0.00 97 1013.2
20260508072528 4 98 0.0 3.2 0.00 0.00 0.00 97 1013.2
20260508072025 4 45 3.2 3.2 0.00 0.00 0.00 97 1013.2
20260508071523 4 157 0.0 1.6 0.00 0.00 0.00 97 1013.1
20260508071020 5 180 0.0 0.0 0.00 0.00 0.00 97 1013.0
20260508070518 4 180 0.0 1.6 0.00 0.00 0.00 96 1013.0
20260508070016 4 180 0.0 0.0 0.00 0.00 0.00 96 1013.2
20260508065514 4 180 0.0 0.0 0.00 0.00 0.00 96 1013.4
20260508065012 5 180 0.0 0.0 0.00 0.00 0.00 95 1013.4
20260508064509 5 180 0.0 1.6 0.00 0.00 0.00 95 1013.5
20260508064007 5 60 0.0 0.0 0.00 0.00 0.00 94 1013.5
20260508063504 5 60 0.0 0.0 0.00 0.00 0.00 93 1013.5
20260508063002 5 66 0.0 1.6 0.00 0.00 0.00 92 1013.7
20260508062459 5 63 0.0 0.0 0.00 0.00 0.00 91 1013.7
20260508061955 5 32 1.6 3.2 0.00 0.00 0.00 91 1013.6
20260508061454 5 111 0.0 1.6 0.00 0.00 0.00 92 1013.6
20260508060949 5 90 0.0 3.2 0.00 0.00 0.00 91 1013.6
20260508060447 5 114 0.0 1.6 0.00 0.00 0.00 91 1013.7
20260508055943 5 164 0.0 3.2 0.00 0.00 0.00 90 1013.5
20260508055440 5 187 0.0 1.6 0.00 0.00 0.00 90 1013.7
20260508054936 5 180 0.0 1.6 0.00 0.00 0.00 89 1013.7
20260508054433 5 154 0.0 1.6 0.00 0.00 0.00 89 1013.8
20260508053930 5 166 0.0 1.6 0.00 0.00 0.00 89 1013.6
20260508053427 5 114 0.0 0.0 0.00 0.00 0.00 88 1013.6
20260508052925 6 74 0.0 0.0 0.00 0.00 0.00 88 1013.7
20260508052422 6 74 0.0 0.0 0.00 0.00 0.00 86 1013.5
20260508051919 6 74 0.0 0.0 0.00 0.00 0.00 85 1013.7
20260508051414 6 74 0.0 0.0 0.00 0.00 0.00 82 1013.5
20260508050910 6 74 0.0 1.6 0.00 0.00 0.00 81 1013.6
20260508050407 7 157 0.0 1.6 0.00 0.00 0.00 81 1013.7
20260508045903 7 98 0.0 1.6 0.00 0.00 0.00 79 1013.7
20260508045401 7 106 0.0 0.0 0.00 0.00 0.00 80 1013.7
20260508044859 7 165 0.0 0.0 0.00 0.00 0.00 79 1013.4
20260508044355 7 151 0.0 1.6 0.00 0.00 0.00 78 1013.6
20260508043851 7 117 0.0 1.6 0.00 0.00 0.00 77 1013.5
20260508043348 7 165 0.0 3.2 0.00 0.00 0.00 78 1013.3
20260508042845 7 145 0.0 1.6 0.00 0.00 0.00 80 1013.4
20260508042343 7 74 0.0 1.6 0.00 0.00 0.00 74 1013.7
20260508041839 8 194 0.0 0.0 0.00 0.00 0.00 74 1013.6
20260508041335 8 188 0.0 1.6 0.00 0.00 0.00 76 1013.4
20260508040832 7 173 0.0 3.2 0.00 0.00 0.00 77 1013.3
20260508040330 7 203 0.0 0.0 0.00 0.00 0.00 78 1013.4
20260508035827 7 180 0.0 1.6 0.00 0.00 0.00 77 1013.5
20260508035324 8 174 0.0 1.6 0.00 0.00 0.00 76 1013.2
20260508034821 7 71 0.0 1.6 0.00 0.00 0.00 78 1013.5
20260508034318 7 157 0.0 1.6 0.00 0.00 0.00 77 1013.4
20260508033815 8 175 0.0 3.2 0.00 0.00 0.00 78 1013.4
20260508033313 8 154 0.0 1.6 0.00 0.00 0.00 75 1013.4
20260508032810 8 99 0.0 1.6 0.00 0.00 0.00 73 1013.6
20260508032308 8 99 0.0 0.0 0.00 0.00 0.00 73 1013.5
20260508031804 8 180 0.0 1.6 0.00 0.00 0.00 74 1013.4
20260508031301 8 206 0.0 3.2 0.00 0.00 0.00 78 1013.3
20260508030757 7 184 3.2 3.2 0.00 0.00 0.00 79 1013.3
20260508030255 7 180 3.2 3.2 0.00 0.00 0.00 80 1013.4
20260508025751 7 126 0.0 1.6 0.00 0.00 0.00 79 1013.5
20260508025248 7 180 1.6 3.2 0.00 0.00 0.00 81 1013.2
20260508024744 7 66 0.0 1.6 0.00 0.00 0.00 81 1013.6
20260508024241 7 157 1.6 3.2 0.00 0.00 0.00 82 1013.5
20260508023738 7 69 0.0 3.2 0.00 0.00 0.00 82 1013.5
20260508023236 7 148 0.0 3.2 0.00 0.00 0.00 82 1013.2
20260508022731 7 165 0.0 3.2 0.00 0.00 0.00 82 1013.3
20260508022228 7 180 1.6 3.2 0.00 0.00 0.00 81 1013.6
20260508021725 7 166 0.0 1.6 0.00 0.00 0.00 79 1013.4
20260508021220 7 82 0.0 1.6 0.00 0.00 0.00 79 1013.2
20260508020718 7 180 0.0 3.2 0.00 0.00 0.00 81 1013.1
20260508020215 7 195 0.0 4.8 0.00 0.00 0.00 80 1013.1
20260508015712 8 180 0.0 3.2 0.00 0.00 0.00 79 1013.2
20260508015209 8 200 1.6 3.2 0.00 0.00 0.00 78 1013.3
20260508014705 8 194 3.2 3.2 0.00 0.00 0.00 78 1013.2
20260508014202 8 180 0.0 4.8 0.00 0.00 0.00 78 1013.2
20260508013658 8 172 0.0 3.2 0.00 0.00 0.00 79 1013.4
20260508013155 8 172 0.0 1.6 0.00 0.00 0.00 80 1013.4
20260508012652 8 151 0.0 3.2 0.00 0.00 0.00 77 1013.3
20260508012149 8 188 0.0 3.2 0.00 0.00 0.00 75 1013.3
20260508011648 8 172 0.0 3.2 0.00 0.00 0.00 74 1013.2
20260508011145 9 162 1.6 3.2 0.00 0.00 0.00 74 1013.2
20260508010641 9 157 0.0 1.6 0.00 0.00 0.00 74 1013.2
20260508010139 10 166 0.0 1.6 0.00 0.00 0.00 71 1013.1
20260508005636 10 168 0.0 3.2 0.00 0.00 0.00 70 1013.0
20260508005133 10 160 0.0 3.2 0.00 0.00 0.00 67 1013.1
20260508004628 10 173 0.0 3.2 0.00 0.00 0.00 68 1013.1
20260508004125 11 165 0.0 1.6 0.00 0.00 0.00 68 1013.0
20260508003621 11 175 1.6 1.6 0.00 0.00 0.00 65 1013.0
20260508003119 11 57 0.0 3.2 0.00 0.00 0.00 60 1013.1
20260508002615 12 74 0.0 1.6 0.00 0.00 0.00 57 1012.8
20260508002113 12 82 1.6 3.2 0.00 0.00 0.00 56 1013.0
20260508001608 12 66 1.6 1.6 0.00 0.00 0.00 55 1012.8
20260508001105 12 69 1.6 3.2 0.00 0.00 0.00 54 1013.0
20260508000600 12 90 0.0 3.2 0.00 0.00 0.00 55 1012.9
20260508000058 12 75 0.0 4.8 0.00 0.00 0.00 54 1013.0
20260507235555 13 85 0.0 3.2 0.00 0.00 0.00 54 1012.8
20260507235052 13 54 1.6 3.2 0.00 0.00 0.00 52 1013.0
20260507234548 13 90 1.6 4.8 0.00 0.00 0.00 52 1012.9
20260507234045 13 49 3.2 3.2 0.00 0.00 0.00 55 1012.8
20260507233542 13 81 0.0 4.8 0.00 0.00 0.00 53 1012.7
20260507233041 13 145 0.0 3.2 0.00 0.00 0.00 53 1012.7
20260507232536 13 81 0.0 3.2 0.00 0.00 0.00 52 1012.8
20260507232034 14 66 0.0 4.8 0.00 0.00 0.00 51 1012.4
20260507231530 14 106 1.6 4.8 0.00 0.00 0.00 52 1012.6
20260507231028 14 84 0.0 3.2 0.00 0.00 0.00 51 1012.6
20260507230524 14 82 0.0 3.2 0.00 0.00 0.00 51 1012.8
20260507230021 14 90 0.0 1.6 0.00 0.00 0.00 50 1012.7
20260507225515 14 29 0.0 1.6 0.00 0.00 0.00 51 1012.8
20260507225012 15 90 0.0 1.6 0.00 0.00 0.00 50 1012.7
20260507224508 15 70 3.2 3.2 0.00 0.00 0.00 52 1012.7
20260507224005 14 79 0.0 3.2 0.00 0.00 0.00 51 1012.5
20260507223501 15 28 3.2 4.8 0.00 0.00 0.00 51 1012.7
20260507222958 15 99 0.0 4.8 0.00 0.00 0.00 51 1012.7
20260507222455 15 60 1.6 6.4 0.00 0.00 0.00 50 1012.5
20260507221951 15 38 4.8 4.8 0.00 0.00 0.00 50 1012.9
20260507221448 15 97 0.0 3.2 0.00 0.00 0.00 50 1012.7
20260507220945 15 82 0.0 3.2 0.00 0.00 0.00 51 1012.7